[[{"header":{"parameterUnit":"m.s-1","parameterCategory":1,"la1":30.2991,"la2":30.254,"lo1":-89.0895,"lo2":-89.0444,"dy":0.0017,"dx":0.0017,"nx":28,"ny":28,"refTime":"2024-12-04T03:00:00:Z","depth":0,"parameterNumber":2,"parameterNumberName":"U-component_of_WINDS"},"data":[0,0,0,0,0,0,0,0,0,0,0,0,0,0,0,0,0,0,0,0,0,0,0,0,0,0,0,0,0,0,0,0,0,0,0,0,0,0,0,0,0,0,0,0,0,0,0,0,0,0,0,0,0,0,0,0,0,0,1.3651,1.3651,0,1.3654,1.3654,1.3654,1.3601,1.36,1.3598,1.3597,1.3601,1.3602,1.3603,0,0,0,0,0,0,0,0,0,0,0,0,0,1.3599,1.36,1.3651,1.3651,1.3651,1.3654,1.3654,1.3654,1.3602,1.36,1.3598,1.3596,1.36,1.3602,1.3603,0,0,0,0,0,0,0,0,0,0,0,0,0,1.3614,1.3601,1.3651,1.3625,1.3623,1.3654,1.3654,1.3654,1.3602,1.36,1.3598,1.3596,1.36,1.3602,1.3604,1.366,0,0,1.361,1.3611,0,0,0,0,0,0,0,0,1.3613,1.3616,1.3629,1.3627,1.3624,1.3625,1.3637,1.3656,1.3602,1.361,1.3597,1.3595,1.361,1.3612,1.3617,1.366,1.366,1.361,1.3612,1.3613,1.3613,0,0,0,0,0,0,0,1.3612,1.3616,1.3652,1.3629,1.3626,1.3613,1.3613,1.3641,1.3622,1.3609,1.3605,1.3606,1.3609,1.3615,1.3617,1.366,1.361,1.3612,1.3614,1.3614,1.3752,1.3754,0,0,0,0,0,0,1.3615,1.3615,1.3652,1.3652,1.3613,1.3616,1.3616,1.3627,1.3622,1.3619,1.3608,1.3604,1.3612,1.3614,1.3617,1.3683,1.3613,1.3615,1.3616,1.3749,1.3752,1.3755,0,0,0,0,0,0,1.3614,1.3619,1.3652,1.3633,1.3636,1.3619,1.3632,1.3628,1.3634,1.3621,1.3618,1.3618,1.3611,1.3614,1.365,1.3682,1.3616,1.3618,1.3747,1.375,1.3753,1.3816,0,0,0,0,0,0,1.3613,1.3619,1.364,1.3634,1.3637,1.3685,1.3634,1.363,1.3638,1.3633,1.3629,1.3627,1.3609,1.3647,1.3652,1.3684,1.3619,1.3744,1.3748,1.3752,1.3811,1.3822,1.383,0,0,0,0,0,1.3611,1.3657,1.3641,1.3646,1.3663,1.3687,1.3689,1.3668,1.3641,1.3662,1.3654,1.3627,1.3678,1.3651,1.3656,1.369,1.3741,1.3747,1.3752,1.3807,1.382,1.383,0,0,0,0,0,0,1.3667,1.3656,1.3638,1.3683,1.3687,1.3678,1.3704,1.3682,1.3693,1.3688,1.3661,1.3661,1.3702,1.3699,1.367,1.3745,1.3705,1.3712,1.3745,1.3757,1.3766,1.3766,1.3621,0,0,0,0,0,1.3684,1.3705,1.3694,1.3735,1.3738,1.3721,1.3731,1.3714,1.3717,1.3718,1.3712,1.3716,1.3733,1.3745,1.3759,1.3811,1.381,1.3836,1.3846,1.3854,1.386,1.3888,1.39,1.3772,1.3772,1.3772,0,0,1.3721,1.3717,1.3732,1.3746,1.3747,1.3769,1.3722,1.3747,1.3764,1.3722,1.3756,1.3752,1.3755,1.3799,1.3818,1.3798,1.3895,1.3861,1.3867,1.3869,1.3895,1.3907,1.3918,1.3776,1.3775,1.3775,0,0,1.3798,1.3798,1.3832,1.3834,1.3836,1.3825,1.3834,1.3829,1.3825,1.3859,1.3829,1.3848,1.3877,1.3881,1.3886,1.3967,1.3943,1.3973,1.4023,1.405,1.4061,1.4069,1.4099,1.411,1.3979,1.3979,1.3979,0,1.3843,1.3875,1.3853,1.388,1.3888,1.3852,1.3887,1.389,1.3897,1.3903,1.3881,1.3918,1.3917,1.3962,1.3982,1.3987,1.3997,1.3973,1.4061,1.4069,1.4077,1.4105,1.4117,1.3983,1.3982,1.3982,1.3981,0,1.3931,1.3954,1.3982,1.399,1.4001,1.4032,1.4015,1.4028,1.4012,1.4003,1.4039,1.4037,1.4051,1.406,1.4044,1.4104,1.4092,1.4065,1.4025,1.4094,1.412,1.413,1.3988,1.3987,1.3985,1.3985,0,0,1.4043,1.4039,1.405,1.4054,1.4054,1.4072,1.4102,1.4116,1.4129,1.4136,1.4161,1.4187,1.4163,1.417,1.4154,1.4178,1.4244,1.4149,1.4148,1.4167,1.4311,1.4331,1.4344,1.4227,1.4229,1.4231,1.4311,0,1.4119,1.417,1.4152,1.4204,1.4226,1.4193,1.4219,1.4222,1.4216,1.4233,1.4225,1.4245,1.4212,1.4215,1.4238,1.4231,1.4272,1.4225,1.4251,1.4252,1.4252,1.4357,1.4378,1.4453,1.4321,1.4322,1.4324,0,1.4214,1.4226,1.4281,1.4279,1.4287,1.4312,1.4324,1.4341,1.4345,1.4338,1.4346,1.4325,1.4355,1.4315,1.4356,1.4325,1.4334,1.4333,1.4335,1.4337,1.4292,1.4362,1.4477,1.4488,1.4339,1.4338,1.4337,0,1.4292,1.432,1.4357,1.4362,1.436,1.4378,1.4379,1.438,1.439,1.4401,1.4408,1.4422,1.443,1.4442,1.4426,1.4398,1.447,1.4428,1.4466,1.4467,1.4483,1.4482,1.4601,1.4488,1.4488,1.4488,1.4488,0,1.4379,1.4414,1.4392,1.4415,1.4454,1.4433,1.4472,1.4468,1.447,1.4492,1.4464,1.4485,1.4462,1.4482,1.4469,1.4506,1.4509,1.4505,1.4502,1.4508,1.4509,1.4514,1.4509,1.4491,1.449,1.449,1.4489,0,1.4471,1.4458,1.4496,1.4492,1.4492,1.4521,1.4518,1.4539,1.4531,1.4559,1.4565,1.4552,1.4573,1.4558,1.4579,1.4571,1.462,1.4608,1.4619,1.4616,1.4655,1.4652,1.4782,1.4798,1.4675,1.4676,1.4677,0,1.4527,1.4554,1.4554,1.4567,1.4569,1.459,1.4601,1.4581,1.4594,1.4601,1.4622,1.4641,1.4655,1.4691,1.4683,1.47,1.4689,1.4734,1.4691,1.4697,1.4691,1.4689,1.4692,1.4742,1.4744,1.4745,1.4746,0,1.463,1.4622,1.4639,1.4654,1.4668,1.4679,1.4688,1.47,1.468,1.4696,1.4718,1.4729,1.4751,1.4771,1.4785,1.4785,1.4763,1.4759,1.4769,1.4776,1.4781,1.478,1.4643,1.4756,1.4755,1.4755,1.4754,1.4754,1.4706,1.4729,1.4732,1.4753,1.4757,1.4766,1.4787,1.4782,1.48,1.4816,1.4804,1.483,1.4835,1.4851,1.4855,1.4875,1.4857,1.4871,1.4874,1.4878,1.4884,1.4778,1.4878,1.4877,1.4877,1.4877,1.4876,0,1.4807,1.4808,1.4827,1.4841,1.4857,1.4835,1.4844,1.4859,1.4883,1.4889,1.4904,1.493,1.4949,1.4944,1.4961,1.4979,1.4969,1.4985,1.4983,1.4984,1.4899,1.4889,1.4992,1.4992,1.4992,1.4992,1.4992,1.4992,1.4861,1.4899,1.4893,1.4933,1.4933,1.496,1.4967,1.4975,1.498,1.5011,1.5027,1.5024,1.5026,1.5043,1.5061,1.5059,1.5067,1.5086,1.508,1.5001,1.499,1.4979,1.4969,1.5088,1.5088,1.5163,1.5164,1.5164]},{"header":{"parameterUnit":"m.s-1","parameterCategory":1,"la1":30.2991,"la2":30.254,"lo1":-89.0895,"lo2":-89.0444,"dy":0.0017,"dx":0.0017,"nx":28,"ny":28,"refTime":"2024-12-04T03:00:00:Z","depth":0,"parameterNumber":3,"parameterNumberName":"V-component_of_WINDS"},"data":[0,0,0,0,0,0,0,0,0,0,0,0,0,0,0,0,0,0,0,0,0,0,0,0,0,0,0,0,0,0,0,0,0,0,0,0,0,0,0,0,0,0,0,0,0,0,0,0,0,0,0,0,0,0,0,0,0,0,5.4344,5.4346,0,5.4477,5.4478,5.448,5.4455,5.4453,5.4451,5.4449,5.4579,5.4584,5.459,0,0,0,0,0,0,0,0,0,0,0,0,0,5.4067,5.4072,5.4344,5.4346,5.4348,5.4476,5.4478,5.448,5.4456,5.4453,5.445,5.4448,5.4577,5.4583,5.459,0,0,0,0,0,0,0,0,0,0,0,0,0,5.4192,5.4074,5.4344,5.4351,5.4353,5.4476,5.4478,5.448,5.4456,5.4453,5.4449,5.4446,5.4575,5.4583,5.4591,5.4713,0,0,5.4617,5.4621,0,0,0,0,0,0,0,0,5.4185,5.4202,5.4349,5.4351,5.4353,5.4446,5.4428,5.4558,5.4457,5.4417,5.4449,5.4444,5.4537,5.4548,5.4581,5.4719,5.4725,5.4618,5.4623,5.4626,5.4629,0,0,0,0,0,0,0,5.4176,5.4196,5.4396,5.4351,5.4354,5.4346,5.436,5.4452,5.4495,5.442,5.4419,5.4435,5.4538,5.4573,5.4583,5.4727,5.4617,5.4625,5.463,5.4633,5.4974,5.4977,0,0,0,0,0,0,5.4166,5.4189,5.4392,5.44,5.4259,5.4354,5.437,5.442,5.4494,5.4502,5.4438,5.4434,5.456,5.4574,5.4588,5.4737,5.4626,5.4634,5.4639,5.497,5.4975,5.4979,0,0,0,0,0,0,5.416,5.4184,5.4387,5.4295,5.432,5.4363,5.4419,5.4424,5.4459,5.4507,5.4514,5.4466,5.4558,5.4576,5.4683,5.4741,5.4638,5.4646,5.4965,5.4971,5.4977,5.5036,0,0,0,0,0,0,5.4152,5.4182,5.423,5.4296,5.4325,5.4481,5.4423,5.4429,5.4475,5.447,5.4536,5.4543,5.4556,5.4671,5.4691,5.4751,5.4652,5.496,5.4968,5.4975,5.5029,5.5044,5.5056,0,0,0,0,0,5.4142,5.424,5.4233,5.4257,5.4386,5.4485,5.4501,5.4516,5.4479,5.4527,5.4558,5.4541,5.4731,5.4682,5.4705,5.4768,5.4956,5.4966,5.4974,5.5023,5.5041,5.5055,0,0,0,0,0,0,5.4178,5.4249,5.4241,5.4364,5.4419,5.4481,5.4542,5.4534,5.4599,5.4591,5.4605,5.462,5.4729,5.4759,5.4702,5.4891,5.4839,5.4853,5.4868,5.4885,5.4898,5.4889,5.4659,0,0,0,0,0,5.42,5.4276,5.4333,5.4435,5.4464,5.4498,5.4542,5.4549,5.4605,5.4628,5.4667,5.4721,5.4793,5.484,5.4909,5.5033,5.5047,5.5088,5.5101,5.5112,5.5124,5.5193,5.5212,5.5008,5.5008,5.5008,0,0,5.4246,5.4295,5.4341,5.4444,5.4487,5.4565,5.4518,5.4601,5.4659,5.464,5.4745,5.4775,5.4836,5.4953,5.5006,5.4981,5.5183,5.5123,5.5131,5.5138,5.5204,5.5223,5.5241,5.5014,5.5013,5.5012,0,0,5.4371,5.4415,5.4506,5.4551,5.4619,5.4641,5.4663,5.4727,5.4747,5.4852,5.484,5.4908,5.5031,5.5076,5.5115,5.5258,5.5245,5.528,5.5349,5.5417,5.5433,5.5447,5.5499,5.5518,5.5292,5.5292,5.5292,0,5.442,5.4538,5.4553,5.4639,5.4685,5.4674,5.4766,5.4808,5.4893,5.4924,5.4896,5.5052,5.5092,5.522,5.5255,5.5287,5.5312,5.5273,5.5429,5.5444,5.5458,5.5508,5.5527,5.5296,5.5296,5.5295,5.5295,0,5.4596,5.4677,5.4743,5.4829,5.4881,5.4969,5.4997,5.5048,5.505,5.5075,5.5183,5.5231,5.5311,5.5341,5.5343,5.5469,5.5452,5.5426,5.5374,5.5481,5.5528,5.5547,5.5302,5.53,5.5299,5.5298,0,0,5.4746,5.4841,5.4865,5.4904,5.4978,5.5041,5.5128,5.5208,5.5252,5.5311,5.5385,5.5491,5.5468,5.5512,5.5519,5.5578,5.569,5.5545,5.5547,5.5572,5.5834,5.5854,5.5876,5.5681,5.5685,5.5688,5.5829,0,5.4879,5.5037,5.5053,5.5193,5.5269,5.526,5.5336,5.5389,5.5415,5.5482,5.5509,5.5585,5.5549,5.5576,5.5633,5.5664,5.5743,5.5654,5.575,5.5753,5.5737,5.5901,5.5922,5.6053,5.5848,5.5851,5.5853,0,5.5055,5.5123,5.5271,5.5336,5.5369,5.5437,5.5513,5.5577,5.5637,5.5651,5.5702,5.5701,5.579,5.5734,5.5858,5.5797,5.5837,5.5858,5.5863,5.5874,5.5811,5.5917,5.6095,5.6115,5.5882,5.588,5.5878,0,5.5153,5.528,5.5386,5.542,5.5497,5.5546,5.558,5.5637,5.5684,5.5749,5.578,5.5853,5.5894,5.595,5.5969,5.5926,5.6092,5.6037,5.6107,5.6106,5.6143,5.6141,5.6332,5.6166,5.6166,5.6166,5.6165,0,5.53,5.5392,5.5431,5.5496,5.5598,5.5616,5.5716,5.5747,5.5798,5.5868,5.5863,5.5929,5.5949,5.6018,5.6033,5.6134,5.6152,5.6166,5.6169,5.6167,5.6166,5.6194,5.6186,5.6171,5.617,5.6169,5.6168,0,5.5427,5.5457,5.5572,5.5637,5.5655,5.5728,5.5783,5.5845,5.587,5.5959,5.5981,5.602,5.6101,5.6126,5.6222,5.6232,5.6351,5.6345,5.6332,5.6332,5.6401,5.6395,5.6618,5.6649,5.6462,5.6464,5.6465,0,5.552,5.559,5.5664,5.5712,5.5749,5.5826,5.5875,5.5895,5.5946,5.602,5.6073,5.6154,5.622,5.635,5.6386,5.646,5.6456,5.653,5.6467,5.6464,5.646,5.6456,5.6464,5.6542,5.6544,5.6545,5.6547,0,5.5682,5.5694,5.5766,5.5844,5.5904,5.5965,5.6024,5.6063,5.6091,5.6149,5.6233,5.6284,5.6385,5.6465,5.6541,5.6574,5.6566,5.6566,5.6586,5.6586,5.6576,5.6584,5.6365,5.6561,5.6559,5.6558,5.6558,5.6557,5.5796,5.5859,5.5921,5.6002,5.6049,5.6105,5.6168,5.6202,5.6273,5.6358,5.6364,5.6456,5.6514,5.6615,5.6653,5.6724,5.6702,5.6731,5.6739,5.6746,5.6753,5.6564,5.6737,5.6737,5.6736,5.6736,5.6736,0,5.5959,5.6,5.6074,5.6158,5.6222,5.621,5.6275,5.6329,5.641,5.6466,5.6532,5.6629,5.6707,5.675,5.6827,5.6876,5.6874,5.6896,5.6893,5.6901,5.6767,5.6742,5.6896,5.6896,5.6896,5.6896,5.6896,5.6896,5.6052,5.6159,5.6178,5.6308,5.6347,5.6439,5.6477,5.6529,5.6574,5.6684,5.675,5.6777,5.6828,5.691,5.6981,5.6991,5.702,5.7045,5.7053,5.6927,5.6911,5.6895,5.6872,5.7051,5.7051,5.7182,5.7183,5.7184]}]]